Terminal Aerodrome Forecast
Issued by NWS

Current Version | Previous Version | Text Only | Print | Product List | Glossary Off
Versions: 1 2 3 4 5 6 7 8 9 10 11 12 13 14 15 16 17 18 19 20 21 22 23 24 25 26

000
FTUS41 KRNK 201121
TAFLWB
TAF
KLWB 201121Z 2012/2112 23008KT P6SM BKN050
     FM201500 27014G22KT P6SM BKN040
     FM202300 29008KT P6SM SCT035
     FM210400 29008KT P6SM -SHSN BKN025=

USA.gov is the U.S. government's official web portal to all federal, state and local government web resources and services.